Location: Unspecified
(52.0000°N, 4.4000°E)
Time: 20:24:42
(UTC+00:00)

Okean 3 Rocket - Pass Details

Date: 14 May 2025
Orbit: 610 x 638 km, 82.5° (Epoch: 20 June)

Event Time Altitude Azimuth Distance (km) Brightness Sun altitude
Rises 23:31:09 0° 345° (NNW) 2,895 8.5 -19.1°
Reaches altitude 10° 23:33:24 10° 341° (NNW) 1,987 7.3 -19.1°
Maximum altitude 23:37:41 54° 265° (W) 756 3.9 -19.1°
Enters shadow 23:38:56 39° 213° (SSW) 928 4.0 -19.1°
